Year,Month,Day,Hour,Minute,Value (Times are PST for temperature in C)
2021,07,03,08,52,19.50
2021,07,03,08,53,19.50
2021,07,03,08,54,19.50
2021,07,03,08,55,19.50
2021,07,03,08,56,19.40
2021,07,03,08,57,19.40
2021,07,03,08,58,19.30
2021,07,03,08,59,19.30
2021,07,03,09,00,19.20
2021,07,03,09,01,19.20
2021,07,03,09,02,19.20
2021,07,03,09,03,19.20
2021,07,03,09,04,19.10
2021,07,03,09,05,19.10
2021,07,03,09,06,19.10
2021,07,03,09,07,19.10
2021,07,03,09,08,19.00
2021,07,03,09,09,18.90
2021,07,03,09,10,18.90
2021,07,03,09,11,19.10
2021,07,03,09,12,19.10
2021,07,03,09,13,19.10
2021,07,03,09,14,19.20
2021,07,03,09,15,19.30
2021,07,03,09,16,19.40
2021,07,03,09,17,19.40
2021,07,03,09,18,19.40
2021,07,03,09,19,19.30
2021,07,03,09,20,19.30
2021,07,03,09,21,19.30
2021,07,03,09,22,19.30
2021,07,03,09,23,19.40
2021,07,03,09,24,19.30
2021,07,03,09,25,19.30
2021,07,03,09,26,19.30
2021,07,03,09,27,19.30
2021,07,03,09,28,19.30
2021,07,03,09,29,19.30
2021,07,03,09,30,19.20
2021,07,03,09,31,19.20
2021,07,03,09,32,19.10
2021,07,03,09,33,19.10
2021,07,03,09,34,19.20
2021,07,03,09,35,19.20
2021,07,03,09,36,19.20
2021,07,03,09,37,19.30
2021,07,03,09,38,19.30
2021,07,03,09,39,19.40
2021,07,03,09,40,19.40
2021,07,03,09,41,19.40
2021,07,03,09,42,19.40
2021,07,03,09,43,19.30
2021,07,03,09,44,19.20
2021,07,03,09,45,19.20
2021,07,03,09,46,19.10
2021,07,03,09,47,19.20
2021,07,03,09,48,19.20
2021,07,03,09,49,19.20
2021,07,03,09,50,19.20
2021,07,03,09,51,19.20
2021,07,03,09,52,19.20
2021,07,03,09,53,19.20
2021,07,03,09,54,19.20
2021,07,03,09,55,19.10
2021,07,03,09,56,19.10
2021,07,03,09,57,19.10
2021,07,03,09,58,19.10
2021,07,03,09,59,19.10
2021,07,03,10,00,19.10
2021,07,03,10,01,19.10
2021,07,03,10,02,19.10
2021,07,03,10,03,19.10
2021,07,03,10,04,19.10
2021,07,03,10,05,19.10
2021,07,03,10,06,19.10
2021,07,03,10,07,19.10
2021,07,03,10,08,19.10
2021,07,03,10,09,19.10
2021,07,03,10,10,19.10
2021,07,03,10,11,19.10
2021,07,03,10,12,19.20
2021,07,03,10,13,19.20
2021,07,03,10,14,19.30
2021,07,03,10,15,19.20
2021,07,03,10,16,19.20
2021,07,03,10,17,19.20
2021,07,03,10,18,19.20
2021,07,03,10,19,19.30
2021,07,03,10,20,19.30
2021,07,03,10,21,19.30
2021,07,03,10,22,19.30
2021,07,03,10,23,19.30
2021,07,03,10,24,19.20
2021,07,03,10,25,19.10
2021,07,03,10,26,19.10
2021,07,03,10,27,19.10
2021,07,03,10,28,19.10
2021,07,03,10,29,19.10
2021,07,03,10,30,19.10
2021,07,03,10,31,19.10
2021,07,03,10,32,18.90
2021,07,03,10,33,18.90
2021,07,03,10,34,19.10
2021,07,03,10,35,19.10
2021,07,03,10,36,19.10
2021,07,03,10,37,19.00
2021,07,03,10,38,18.90
2021,07,03,10,39,18.90
2021,07,03,10,40,18.90
2021,07,03,10,41,18.90
2021,07,03,10,42,18.90
2021,07,03,10,43,18.90
2021,07,03,10,44,19.00
2021,07,03,10,45,19.10
2021,07,03,10,46,19.10
2021,07,03,10,47,19.20
2021,07,03,10,48,19.40
2021,07,03,10,49,19.50
2021,07,03,10,50,19.60
2021,07,03,10,51,19.50
2021,07,03,10,52,19.40
2021,07,03,10,53,19.30
2021,07,03,10,54,19.20
2021,07,03,10,55,19.20
2021,07,03,10,56,19.20
2021,07,03,10,57,19.30
2021,07,03,10,58,19.30
2021,07,03,10,59,19.30
2021,07,03,11,00,19.20
2021,07,03,11,01,19.10
2021,07,03,11,02,19.10
2021,07,03,11,03,19.10
2021,07,03,11,04,19.20
2021,07,03,11,05,19.20
2021,07,03,11,06,19.20
2021,07,03,11,07,19.20
2021,07,03,11,08,19.20
2021,07,03,11,09,19.10
2021,07,03,11,10,19.10
2021,07,03,11,11,19.10
2021,07,03,11,12,19.10
2021,07,03,11,13,19.10
2021,07,03,11,14,19.20
2021,07,03,11,15,19.30
2021,07,03,11,16,19.30
2021,07,03,11,17,19.30
2021,07,03,11,18,19.30
2021,07,03,11,19,19.40
2021,07,03,11,20,19.40
2021,07,03,11,21,19.40
2021,07,03,11,22,19.30
2021,07,03,11,23,19.30
2021,07,03,11,24,19.20
2021,07,03,11,25,19.30
2021,07,03,11,26,19.30
2021,07,03,11,27,19.40
2021,07,03,11,28,19.40
2021,07,03,11,29,19.50
2021,07,03,11,30,19.50
2021,07,03,11,31,19.50
2021,07,03,11,32,19.50
2021,07,03,11,33,19.50
2021,07,03,11,34,19.40
2021,07,03,11,35,19.40
2021,07,03,11,36,19.40
2021,07,03,11,37,19.40
2021,07,03,11,38,19.40
2021,07,03,11,39,19.30
2021,07,03,11,40,19.30
2021,07,03,11,41,19.30
2021,07,03,11,42,19.30
2021,07,03,11,43,19.40
2021,07,03,11,44,19.40
2021,07,03,11,45,19.40
2021,07,03,11,46,19.40
2021,07,03,11,47,19.50
2021,07,03,11,48,19.50
2021,07,03,11,49,19.50
2021,07,03,11,50,19.40
2021,07,03,11,51,19.40
2021,07,03,11,52,19.30
2021,07,03,11,53,19.30
2021,07,03,11,54,19.30
2021,07,03,11,55,19.30
2021,07,03,11,56,19.30
2021,07,03,11,57,19.40
2021,07,03,11,58,19.50
2021,07,03,11,59,19.60
2021,07,03,12,00,19.70
2021,07,03,12,01,19.90
2021,07,03,12,02,19.90
2021,07,03,12,03,20.00
2021,07,03,12,04,20.20
2021,07,03,12,05,20.20
2021,07,03,12,06,20.20
2021,07,03,12,07,20.10
2021,07,03,12,08,20.00
2021,07,03,12,09,20.00
2021,07,03,12,10,20.10
2021,07,03,12,11,20.20
2021,07,03,12,12,20.20
2021,07,03,12,13,20.20
2021,07,03,12,14,20.20
2021,07,03,12,15,20.20
2021,07,03,12,16,20.20
2021,07,03,12,17,20.00
2021,07,03,12,18,19.90
2021,07,03,12,19,19.90
2021,07,03,12,20,19.80
2021,07,03,12,21,19.70
2021,07,03,12,22,19.70
2021,07,03,12,23,19.60
2021,07,03,12,24,19.60
2021,07,03,12,25,19.60
2021,07,03,12,26,19.60
2021,07,03,12,27,19.70
2021,07,03,12,28,19.80
2021,07,03,12,29,20.00
2021,07,03,12,30,20.10
2021,07,03,12,31,20.00
2021,07,03,12,32,19.90
2021,07,03,12,33,20.00
2021,07,03,12,34,19.90
2021,07,03,12,35,19.90
2021,07,03,12,36,19.90
2021,07,03,12,37,19.80
2021,07,03,12,38,19.80
2021,07,03,12,39,19.80
2021,07,03,12,40,19.80
2021,07,03,12,41,19.80
2021,07,03,12,42,19.90
2021,07,03,12,43,19.90
2021,07,03,12,44,19.90
2021,07,03,12,45,20.00
2021,07,03,12,46,20.10
2021,07,03,12,47,20.20
2021,07,03,12,48,20.20
2021,07,03,12,49,20.20
2021,07,03,12,50,20.20
2021,07,03,12,51,20.20
2021,07,03,12,52,20.20
2021,07,03,12,53,20.20
2021,07,03,12,54,20.20
2021,07,03,12,55,20.20
2021,07,03,12,56,20.30
2021,07,03,12,57,20.30
2021,07,03,12,58,20.20
2021,07,03,12,59,20.30
2021,07,03,13,00,20.30
2021,07,03,13,01,20.20
2021,07,03,13,02,20.10
2021,07,03,13,03,20.10
2021,07,03,13,04,20.10
2021,07,03,13,05,20.10
2021,07,03,13,06,20.10
2021,07,03,13,07,19.90
2021,07,03,13,08,19.90
2021,07,03,13,09,19.90
2021,07,03,13,10,19.90
2021,07,03,13,11,20.00
2021,07,03,13,12,20.10
2021,07,03,13,13,20.20
2021,07,03,13,14,20.20
2021,07,03,13,15,20.10
2021,07,03,13,16,20.10
2021,07,03,13,17,20.00
2021,07,03,13,18,19.90
2021,07,03,13,19,20.00
2021,07,03,13,20,20.10
2021,07,03,13,21,20.20
2021,07,03,13,22,20.20
2021,07,03,13,23,20.20
2021,07,03,13,24,20.00
2021,07,03,13,25,19.90
2021,07,03,13,26,19.90
2021,07,03,13,27,19.90
2021,07,03,13,28,20.00
2021,07,03,13,29,20.10
2021,07,03,13,30,20.10
2021,07,03,13,31,20.20
2021,07,03,13,32,20.10
2021,07,03,13,33,20.10
2021,07,03,13,34,20.10
2021,07,03,13,35,20.00
2021,07,03,13,36,20.10
2021,07,03,13,37,20.10
2021,07,03,13,38,20.20
2021,07,03,13,39,20.20
2021,07,03,13,40,20.20
2021,07,03,13,41,20.20
2021,07,03,13,42,20.20
2021,07,03,13,43,20.20
2021,07,03,13,44,20.20
2021,07,03,13,45,20.20
2021,07,03,13,46,20.40
2021,07,03,13,47,20.40
2021,07,03,13,48,20.40
2021,07,03,13,49,20.40
2021,07,03,13,50,20.50
2021,07,03,13,51,20.50
2021,07,03,13,52,20.50
2021,07,03,13,53,20.50
2021,07,03,13,54,20.40
2021,07,03,13,55,20.40
2021,07,03,13,56,20.40
2021,07,03,13,57,20.40
2021,07,03,13,58,20.40
2021,07,03,13,59,20.50
2021,07,03,14,00,20.50
2021,07,03,14,01,20.40
2021,07,03,14,02,20.50
2021,07,03,14,03,20.50
2021,07,03,14,04,20.50
2021,07,03,14,05,20.50
2021,07,03,14,06,20.60
2021,07,03,14,07,20.60
2021,07,03,14,08,20.60
2021,07,03,14,09,20.60
2021,07,03,14,10,20.50
2021,07,03,14,11,20.50
2021,07,03,14,12,20.50
2021,07,03,14,13,20.60
2021,07,03,14,14,20.60
2021,07,03,14,15,20.60
2021,07,03,14,16,20.60
2021,07,03,14,17,20.60
2021,07,03,14,18,20.50
2021,07,03,14,19,20.40
2021,07,03,14,20,20.40
2021,07,03,14,21,20.40
2021,07,03,14,22,20.40
2021,07,03,14,23,20.50
2021,07,03,14,24,20.60
2021,07,03,14,25,20.60
2021,07,03,14,26,20.50
2021,07,03,14,27,20.40
2021,07,03,14,28,20.30
2021,07,03,14,29,20.30
2021,07,03,14,30,20.20
2021,07,03,14,31,20.20
2021,07,03,14,32,20.30
2021,07,03,14,33,20.40
2021,07,03,14,34,20.50
2021,07,03,14,35,20.50
2021,07,03,14,36,20.50
2021,07,03,14,37,20.50
2021,07,03,14,38,20.60
2021,07,03,14,39,20.70
2021,07,03,14,40,20.80
2021,07,03,14,41,20.70
2021,07,03,14,42,20.50
2021,07,03,14,43,20.50
2021,07,03,14,44,20.60
2021,07,03,14,45,20.70
2021,07,03,14,46,20.80
2021,07,03,14,47,20.90
2021,07,03,14,48,21.00
2021,07,03,14,49,21.10
2021,07,03,14,50,21.10
2021,07,03,14,51,21.10
2021,07,03,14,52,21.10
2021,07,03,14,53,21.00
2021,07,03,14,54,20.90
2021,07,03,14,55,20.90
2021,07,03,14,56,20.80
2021,07,03,14,57,20.80
2021,07,03,14,58,20.80
2021,07,03,14,59,20.80
2021,07,03,15,00,20.70
2021,07,03,15,01,20.60
2021,07,03,15,02,20.60
2021,07,03,15,03,20.70
2021,07,03,15,04,20.70
2021,07,03,15,05,20.70
2021,07,03,15,06,20.70
2021,07,03,15,07,20.70
2021,07,03,15,08,20.70
2021,07,03,15,09,20.70
2021,07,03,15,10,20.70
2021,07,03,15,11,20.60
2021,07,03,15,12,20.50
2021,07,03,15,13,20.50
2021,07,03,15,14,20.50
2021,07,03,15,15,20.50
2021,07,03,15,16,20.40
2021,07,03,15,17,20.40
2021,07,03,15,18,20.40
2021,07,03,15,19,20.40
2021,07,03,15,20,20.40
2021,07,03,15,21,20.40
2021,07,03,15,22,20.50
2021,07,03,15,23,20.50
2021,07,03,15,24,20.50
2021,07,03,15,25,20.60
2021,07,03,15,26,20.60
2021,07,03,15,27,20.70
2021,07,03,15,28,20.80
2021,07,03,15,29,20.80
2021,07,03,15,30,20.90
2021,07,03,15,31,20.90
2021,07,03,15,32,20.90
2021,07,03,15,33,21.00
2021,07,03,15,34,21.00
2021,07,03,15,35,20.90
2021,07,03,15,36,20.90
2021,07,03,15,37,20.90
2021,07,03,15,38,21.00
2021,07,03,15,39,21.00
2021,07,03,15,40,21.10
2021,07,03,15,41,21.20
2021,07,03,15,42,21.30
2021,07,03,15,43,21.30
2021,07,03,15,44,21.30
2021,07,03,15,45,21.30
2021,07,03,15,46,21.30
2021,07,03,15,47,21.30
2021,07,03,15,48,21.30
2021,07,03,15,49,21.30
2021,07,03,15,50,21.20
2021,07,03,15,51,21.20
2021,07,03,15,52,21.10
2021,07,03,15,53,21.00
2021,07,03,15,54,20.90
2021,07,03,15,55,20.80
2021,07,03,15,56,20.80
2021,07,03,15,57,20.90
2021,07,03,15,58,20.90
2021,07,03,15,59,20.80
2021,07,03,16,00,20.70
2021,07,03,16,01,20.60
2021,07,03,16,02,20.70
2021,07,03,16,03,20.70
2021,07,03,16,04,20.80
2021,07,03,16,05,21.00
2021,07,03,16,06,21.10
2021,07,03,16,07,21.20
2021,07,03,16,08,21.30
2021,07,03,16,09,21.30
2021,07,03,16,10,21.30
2021,07,03,16,11,21.40
2021,07,03,16,12,21.60
2021,07,03,16,13,21.60
2021,07,03,16,14,21.60
2021,07,03,16,15,21.60
2021,07,03,16,16,21.60
2021,07,03,16,17,21.60
2021,07,03,16,18,21.60
2021,07,03,16,19,21.60
2021,07,03,16,20,21.60
2021,07,03,16,21,21.60
2021,07,03,16,22,21.50
2021,07,03,16,23,21.50
2021,07,03,16,24,21.50
2021,07,03,16,25,21.50
2021,07,03,16,26,21.60
2021,07,03,16,27,21.50
2021,07,03,16,28,21.60
2021,07,03,16,29,21.70
2021,07,03,16,30,21.70
2021,07,03,16,31,21.70
2021,07,03,16,32,21.80
2021,07,03,16,33,21.90
2021,07,03,16,34,22.00
2021,07,03,16,35,22.00
2021,07,03,16,36,22.10
2021,07,03,16,37,22.10
2021,07,03,16,38,22.20
2021,07,03,16,39,22.30
2021,07,03,16,40,22.30
2021,07,03,16,41,22.30
2021,07,03,16,42,22.40
2021,07,03,16,43,22.50
2021,07,03,16,44,22.50
2021,07,03,16,45,22.60
2021,07,03,16,46,22.70
2021,07,03,16,47,22.70
2021,07,03,16,48,22.70
2021,07,03,16,49,22.70
2021,07,03,16,50,22.80
2021,07,03,16,51,22.90
2021,07,03,16,52,22.90
2021,07,03,16,53,22.90
2021,07,03,16,54,22.90
2021,07,03,16,55,22.90
2021,07,03,16,56,22.90
2021,07,03,16,57,22.90
2021,07,03,16,58,23.00
2021,07,03,16,59,23.20
2021,07,03,17,00,23.30
2021,07,03,17,01,23.30
2021,07,03,17,02,23.40
2021,07,03,17,03,23.40
2021,07,03,17,04,23.40
2021,07,03,17,05,23.40
2021,07,03,17,06,23.30
2021,07,03,17,07,23.40
2021,07,03,17,08,23.40
2021,07,03,17,09,23.40
2021,07,03,17,10,23.40
2021,07,03,17,11,23.30
2021,07,03,17,12,23.30
2021,07,03,17,13,23.30
2021,07,03,17,14,23.20
2021,07,03,17,15,23.10
2021,07,03,17,16,23.10
2021,07,03,17,17,23.10
2021,07,03,17,18,23.10
2021,07,03,17,19,23.20
2021,07,03,17,20,23.20
2021,07,03,17,21,23.30
2021,07,03,17,22,23.30
2021,07,03,17,23,23.30
2021,07,03,17,24,23.30
2021,07,03,17,25,23.30
2021,07,03,17,26,23.30
2021,07,03,17,27,23.20
2021,07,03,17,28,23.00
2021,07,03,17,29,22.90
2021,07,03,17,30,22.90
2021,07,03,17,31,22.90
2021,07,03,17,32,22.90
2021,07,03,17,33,22.80
2021,07,03,17,34,22.70
2021,07,03,17,35,22.70
2021,07,03,17,36,22.70
2021,07,03,17,37,22.60
2021,07,03,17,38,22.60
2021,07,03,17,39,22.60
2021,07,03,17,40,22.60
2021,07,03,17,41,22.70
2021,07,03,17,42,22.70
2021,07,03,17,43,22.70
2021,07,03,17,44,22.70
2021,07,03,17,45,22.70
2021,07,03,17,46,22.70
2021,07,03,17,47,22.70
2021,07,03,17,48,22.60
2021,07,03,17,49,22.50
2021,07,03,17,50,22.50
2021,07,03,17,51,22.40
2021,07,03,17,52,22.30
2021,07,03,17,53,22.20
2021,07,03,17,54,22.20
2021,07,03,17,55,22.10
2021,07,03,17,56,22.10
2021,07,03,17,57,22.00
2021,07,03,17,58,21.90
2021,07,03,17,59,21.90
2021,07,03,18,00,21.90
2021,07,03,18,01,21.80
2021,07,03,18,02,21.80
2021,07,03,18,03,21.80
2021,07,03,18,04,21.90
2021,07,03,18,05,21.90
2021,07,03,18,06,21.80
2021,07,03,18,07,21.80
2021,07,03,18,08,21.80
2021,07,03,18,09,21.70
2021,07,03,18,10,21.60
2021,07,03,18,11,21.60
2021,07,03,18,12,21.60
2021,07,03,18,13,21.60
2021,07,03,18,14,21.60
2021,07,03,18,15,21.60
2021,07,03,18,16,21.60
2021,07,03,18,17,21.60
2021,07,03,18,18,21.60
2021,07,03,18,19,21.50
2021,07,03,18,20,21.40
2021,07,03,18,21,21.40
2021,07,03,18,22,21.40
2021,07,03,18,23,21.50
2021,07,03,18,24,21.60
2021,07,03,18,25,21.60
2021,07,03,18,26,21.60
2021,07,03,18,27,21.60
2021,07,03,18,28,21.60
2021,07,03,18,29,21.60
2021,07,03,18,30,21.60
2021,07,03,18,31,21.70
2021,07,03,18,32,21.70
2021,07,03,18,33,21.70
2021,07,03,18,34,21.70
2021,07,03,18,35,21.70
2021,07,03,18,36,21.60
2021,07,03,18,37,21.60
2021,07,03,18,38,21.60
2021,07,03,18,39,21.60
2021,07,03,18,40,21.60
2021,07,03,18,41,21.60
2021,07,03,18,42,21.60
2021,07,03,18,43,21.60
2021,07,03,18,44,21.60
2021,07,03,18,45,21.60
2021,07,03,18,46,21.60
2021,07,03,18,47,21.60
2021,07,03,18,48,21.60
2021,07,03,18,49,21.60
2021,07,03,18,50,21.60
2021,07,03,18,51,21.60
2021,07,03,18,52,21.60
2021,07,03,18,53,21.50
2021,07,03,18,54,21.40
2021,07,03,18,55,21.40
2021,07,03,18,56,21.40
2021,07,03,18,57,21.40
2021,07,03,18,58,21.40
2021,07,03,18,59,21.40
2021,07,03,19,00,21.30
2021,07,03,19,01,21.30
2021,07,03,19,02,21.30
2021,07,03,19,03,21.30
2021,07,03,19,04,21.30
2021,07,03,19,05,21.30
2021,07,03,19,06,21.30
2021,07,03,19,07,21.30
2021,07,03,19,08,21.30
2021,07,03,19,09,21.30
2021,07,03,19,10,21.30
2021,07,03,19,11,21.30
2021,07,03,19,12,21.30
2021,07,03,19,13,21.30
2021,07,03,19,14,21.30
2021,07,03,19,15,21.30
2021,07,03,19,16,21.30
2021,07,03,19,17,21.30
2021,07,03,19,18,21.30
2021,07,03,19,19,21.30
2021,07,03,19,20,21.30
2021,07,03,19,21,21.30
2021,07,03,19,22,21.30
2021,07,03,19,23,21.30
2021,07,03,19,24,21.30
2021,07,03,19,25,21.30
2021,07,03,19,26,21.30
2021,07,03,19,27,21.30
2021,07,03,19,28,21.30
2021,07,03,19,29,21.30
